Location: Janeiro
(34.9957°N, 76.7652°W)
Time: 16:59:28
(UTC+00:00)

YAOGAN 1 - Pass Details

Date: 14 December 2019
Orbit: 619 x 621 km, 98.0° (Epoch: 19 January)

Event Time Altitude Azimuth Distance (km) Brightness Sun altitude
Rises 23:30:38 0° 160° (SSE) 2,881 5.9 -18.7°
Reaches altitude 10° 23:32:49 10° 157° (SSE) 1,980 5.1 -19.1°
Maximum altitude 23:37:05 65° 76° (ENE) 682 2.4 -20.0°
Drops below altitude 10° 23:41:22 10° 354° (N) 1,993 5.1 -20.8°
Sets 23:43:35 0° 352° (N) 2,903 5.9 -21.3°
